TimeMST,TemperatureF,Dew PointF,Humidity,Sea Level PressureIn,VisibilityMPH,Wind Direction,Wind SpeedMPH,Gust SpeedMPH,PrecipitationIn,Events,Conditions,WindDirDegrees,DateUTC
12:48 AM,-6.0,-9.9,83,30.41,-9999.0,West,5.8,-,N/A,,Unknown,270,2013-01-03 07:48:00
1:48 AM,-7.1,-11.0,83,30.40,-9999.0,WSW,3.5,-,N/A,,Unknown,250,2013-01-03 08:48:00
2:48 AM,-6.0,-11.0,79,30.40,-9999.0,Calm,Calm,-,N/A,,Unknown,0,2013-01-03 09:48:00
3:48 AM,-5.1,-9.9,80,30.38,-9999.0,Calm,Calm,-,N/A,,Unknown,0,2013-01-03 10:48:00
4:48 AM,-7.1,-11.9,79,30.35,-9999.0,Calm,Calm,-,N/A,,Unknown,0,2013-01-03 11:48:00
5:48 AM,-6.0,-11.0,79,30.35,-9999.0,Calm,Calm,-,N/A,,Unknown,0,2013-01-03 12:48:00
6:48 AM,-7.1,-11.9,79,30.35,-9999.0,Calm,Calm,-,N/A,,Unknown,0,2013-01-03 13:48:00
7:48 AM,-2.9,-8.0,79,30.32,-9999.0,Calm,Calm,-,N/A,,Unknown,0,2013-01-03 14:48:00
8:48 AM,-2.0,-6.0,83,30.30,-9999.0,Calm,Calm,-,N/A,,Unknown,0,2013-01-03 15:48:00
9:48 AM,6.1,3.9,91,30.29,-9999.0,Calm,Calm,-,N/A,,Unknown,0,2013-01-03 16:48:00
10:48 AM,23.0,12.0,63,30.26,-9999.0,WNW,6.9,-,N/A,,Unknown,300,2013-01-03 17:48:00
11:48 AM,30.0,14.0,51,30.23,-9999.0,West,9.2,18.4,N/A,,Unknown,260,2013-01-03 18:48:00
12:48 PM,30.9,15.1,52,30.20,-9999.0,West,12.7,-,N/A,,Unknown,260,2013-01-03 19:48:00
1:48 PM,33.1,17.1,52,30.19,-9999.0,West,13.8,-,N/A,,Unknown,260,2013-01-03 20:48:00
2:48 PM,32.0,19.0,59,30.19,-9999.0,West,8.1,-,N/A,,Unknown,280,2013-01-03 21:48:00
3:48 PM,28.0,17.1,63,30.20,-9999.0,West,6.9,-,N/A,,Unknown,270,2013-01-03 22:48:00
4:48 PM,24.1,14.0,65,30.22,-9999.0,WNW,8.1,-,N/A,,Unknown,290,2013-01-03 23:48:00
5:48 PM,19.9,12.0,71,30.24,-9999.0,West,8.1,-,N/A,,Unknown,280,2013-01-04 00:48:00
6:48 PM,12.9,8.1,81,30.26,-9999.0,Calm,Calm,-,N/A,,Unknown,0,2013-01-04 01:48:00
7:48 PM,10.9,6.1,81,30.26,-9999.0,WNW,3.5,-,N/A,,Unknown,290,2013-01-04 02:48:00
8:48 PM,6.1,1.9,83,30.26,-9999.0,WNW,3.5,-,N/A,,Unknown,290,2013-01-04 03:48:00
9:48 PM,3.0,-0.9,84,30.25,-9999.0,West,5.8,-,N/A,,Unknown,280,2013-01-04 04:48:00
10:48 PM,1.9,-2.0,83,30.23,-9999.0,West,5.8,-,N/A,,Unknown,280,2013-01-04 05:48:00
11:48 PM,3.9,1.0,88,30.21,-9999.0,WNW,5.8,-,N/A,,Unknown,290,2013-01-04 06:48:00